EW3950 Pantokratora GR current weather conditions

sailwx.info

Wind from 219

Air temperature 10.0° C
Dewpoint 2.4° C

Last reported at 2020-Jan-22 15:01 UTC.
Time now 2020-Jan-22 15:33 UTC

Location: N 39°45' E 019°50'.
View on Google Maps.

See reports from other nearby stations

  
Tides and Currents Weather Stations Pressure Air Temp Water Temp Dewpoint Dewpoint Depression Visibility Wind Speed Wind Dir Waves Ship Positions
date/time (UTC)wind fromknots sea level pressurealtimeterstation pressurevisibilityair tempwater tempwave heightnotes
2020-Jan-22 15:01 219 10.0
2020-Jan-22 14:52 255 11.7
2020-Jan-22 14:43 11.7
2020-Jan-22 14:34 275 11.1
2020-Jan-22 14:25 12.2
2020-Jan-22 14:16 11.7
2020-Jan-22 14:07 178 11.7
2020-Jan-22 13:58 287 11.1
2020-Jan-22 13:49 322 0 gusting 3 10.6
2020-Jan-22 13:40 307 0 gusting 3 10.6
2020-Jan-22 13:13 326 1 gusting 3 10.6
2020-Jan-22 13:04 265 0 gusting 2 11.1
2020-Jan-22 12:55 296 0 gusting 3 10.6
2020-Jan-22 12:46 310 0 gusting 3 10.6
2020-Jan-22 12:37 315 1 gusting 3 10.6
2020-Jan-22 12:28 304 2 gusting 5 10.0
2020-Jan-22 12:19 324 1 gusting 5 10.6
2020-Jan-22 12:10 349 1 gusting 5 10.6
2020-Jan-22 12:01 313 0 gusting 4 10.6
2020-Jan-22 11:52 265 0 gusting 2 10.6
2020-Jan-22 11:43 243 0 gusting 2 10.6
2020-Jan-22 11:34 291 0 gusting 3 10.6
2020-Jan-22 11:25 312 10.6
2020-Jan-22 11:16 267 10.0
2020-Jan-22 11:07 291 0 gusting 2 9.4
2020-Jan-22 10:58 311 0 gusting 3 9.4
2020-Jan-22 10:49 301 1 gusting 3 9.4
2020-Jan-22 10:40 297 1 gusting 4 8.9
2020-Jan-22 10:31 304 0 gusting 4 8.9
2020-Jan-22 10:22 327 9.4
2020-Jan-22 10:13 031 0 gusting 3 8.9
2020-Jan-22 10:04 054 0 gusting 3 8.9
2020-Jan-22 09:55 036 2 gusting 4 8.3
2020-Jan-22 09:46 035 2 gusting 4 8.3
2020-Jan-22 09:37 005 0 gusting 4 8.3
2020-Jan-22 09:28 050 0 gusting 4 8.3
2020-Jan-22 09:19 020 1 gusting 4 8.3
2020-Jan-22 09:10 053 1 gusting 5 8.3
2020-Jan-22 09:01 066 7.8
2020-Jan-22 08:52 104 7.8
2020-Jan-22 08:43 135 7.8
2020-Jan-22 08:34 129 7.2
2020-Jan-22 08:25 129 6.7
2020-Jan-22 08:16 134 6.1
2020-Jan-22 08:07 135 0 gusting 0 5.6
2020-Jan-22 07:58 136 0 gusting 0 5.6
2020-Jan-22 07:49 139 0 gusting 1 4.4
2020-Jan-22 07:40 3.3
2020-Jan-22 07:31 123 2.8
2020-Jan-22 07:22 2.2
2020-Jan-22 07:13 2.2
2020-Jan-22 07:04 1.7
2020-Jan-22 06:55 1.1
2020-Jan-22 06:46 1.1
2020-Jan-22 06:37 1.7
2020-Jan-22 06:28 1.7
2020-Jan-22 06:19 1.7
2020-Jan-22 06:10 1.7
2020-Jan-22 06:01 144 1.7
2020-Jan-22 05:52 146 1.7
2020-Jan-22 05:43 136 1.7
2020-Jan-22 05:34 144 1.7
2020-Jan-22 05:25 156 1.7
2020-Jan-22 05:16 152 1.7
2020-Jan-22 05:07 146 1.7
2020-Jan-22 04:58 146 1.7
2020-Jan-22 04:49 1.7
2020-Jan-22 04:40 144 1.7
2020-Jan-22 04:31 142 1.7
2020-Jan-22 04:22 147 1.1
2020-Jan-22 04:13 131 1.7
2020-Jan-22 04:04 130 1.7
2020-Jan-22 03:55 147 2.2
2020-Jan-22 03:46 211 2.2
2020-Jan-22 03:37 230 2.8
2020-Jan-22 03:28 233 3.3
2020-Jan-22 03:19 093 3.3
2020-Jan-22 03:10 108 2.8
2020-Jan-22 03:01 113 2.8
2020-Jan-22 02:52 106 2.8
2020-Jan-22 02:43 102 3.3
2020-Jan-22 02:34 083 0 gusting 4 4.4
2020-Jan-22 02:25 083 0 gusting 4 3.3
2020-Jan-22 02:16 127 2.2
2020-Jan-22 02:07 133 2.2
2020-Jan-22 01:58 144 1.7
2020-Jan-22 01:49 1.7
2020-Jan-22 01:40 1.7
2020-Jan-22 01:31 1.7
2020-Jan-22 01:22 1.7
2020-Jan-22 01:13 2.2
2020-Jan-22 01:04 2.2
2020-Jan-22 00:55 2.2
2020-Jan-22 00:46 125 2.2
2020-Jan-22 00:37 2.2
2020-Jan-22 00:28 120 2.2
2020-Jan-22 00:19 2.8
2020-Jan-22 00:10 128 2.8
2020-Jan-22 00:01 127 0 gusting 2 2.2
2020-Jan-21 23:52 128 1.7
2020-Jan-21 23:43 1.7
2020-Jan-21 23:34 1.7
2020-Jan-21 23:25 1.7
2020-Jan-21 23:16 1.7
2020-Jan-21 23:07 1.7
2020-Jan-21 22:58 2.2
2020-Jan-21 22:49 2.2
2020-Jan-21 22:40 2.2
2020-Jan-21 22:31 2.2
2020-Jan-21 22:22 2.2
2020-Jan-21 22:13 2.2
2020-Jan-21 22:04 2.2
2020-Jan-21 21:55 1.7
2020-Jan-21 21:46 1.7
2020-Jan-21 21:37 1.7
2020-Jan-21 21:28 1.7
2020-Jan-21 21:19 2.2
2020-Jan-21 21:10 2.2
2020-Jan-21 21:01 2.2
2020-Jan-21 20:52 142 2.2
2020-Jan-21 20:43 139 1.7
2020-Jan-21 20:34 1.7
2020-Jan-21 20:25 137 1.7
2020-Jan-21 20:16 1.7
2020-Jan-21 20:07 136 2.2
2020-Jan-21 19:58 136 2.2
2020-Jan-21 19:49 144 2.2
2020-Jan-21 19:40 145 2.2
2020-Jan-21 19:31 147 2.2
2020-Jan-21 19:22 152 2.2
2020-Jan-21 19:13 157 2.8
2020-Jan-21 19:04 2.8
2020-Jan-21 18:55 2.8
2020-Jan-21 18:46 2.8
2020-Jan-21 18:37 2.8
2020-Jan-21 18:28 2.8
2020-Jan-21 18:19 2.2
2020-Jan-21 18:10 2.2
2020-Jan-21 18:01 2.8
2020-Jan-21 17:52 137 2.8
2020-Jan-21 17:43 2.2
2020-Jan-21 17:34 2.8
2020-Jan-21 17:25 125 2.8
2020-Jan-21 17:16 125 2.8
2020-Jan-21 17:07 3.3
2020-Jan-21 16:58 3.3
2020-Jan-21 16:49 3.9
2020-Jan-21 16:40 4.4
2020-Jan-21 16:31 5.0
2020-Jan-21 16:22 124 5.6
2020-Jan-21 16:13 108 0 gusting 1 6.1
2020-Jan-21 16:04 086 6.1
2020-Jan-21 15:55 255 6.7
2020-Jan-21 15:46 041 0 gusting 4 6.7
2020-Jan-21 15:37 026 1 gusting 4 6.7
2020-Jan-21 15:28 313 1 gusting 4 7.2
2020-Jan-21 15:19 315 0 gusting 4 7.2
2020-Jan-21 15:10 011 7.8
2020-Jan-21 15:01 078 7.8
2020-Jan-21 14:52 068 7.8
2020-Jan-21 14:43 032 7.8
2020-Jan-21 14:34 264 0 gusting 3 8.3
2020-Jan-21 14:25 300 0 gusting 3 8.3
2020-Jan-21 14:16 307 0 gusting 6 8.9
2020-Jan-21 14:07 302 1 gusting 5 8.3
2020-Jan-21 13:58 079 8.3
2020-Jan-21 13:49 272 0 gusting 2 8.3
2020-Jan-21 13:40 027 0 gusting 2 8.3
2020-Jan-21 13:31 340 1 gusting 5 8.9
2020-Jan-21 13:22 013 0 gusting 4 9.4
2020-Jan-21 13:13 325 0 gusting 4 9.4
2020-Jan-21 13:04 324 1 gusting 5 9.4
2020-Jan-21 12:55 038 1 gusting 8 9.4
2020-Jan-21 12:46 041 3 gusting 8 8.9
2020-Jan-21 12:37 016 2 gusting 6 8.9
2020-Jan-21 12:28 036 1 gusting 4 8.9
2020-Jan-21 12:19 023 1 gusting 6 8.3
2020-Jan-21 12:10 008 1 gusting 6 8.3
2020-Jan-21 12:01 003 0 gusting 3 8.3
2020-Jan-21 11:52 349 1 gusting 5 8.3
2020-Jan-21 11:43 042 1 gusting 4 8.9
2020-Jan-21 11:34 032 1 gusting 4 8.9
2020-Jan-21 11:25 327 1 gusting 4 8.9
2020-Jan-21 11:16 338 1 gusting 5 8.9
2020-Jan-21 11:07 344 0 gusting 3 8.3
2020-Jan-21 10:58 043 0 gusting 3 7.8
2020-Jan-21 10:49 034 0 gusting 2 7.8
2020-Jan-21 10:40 020 1 gusting 4 8.3
2020-Jan-21 10:31 305 0 gusting 2 8.3
2020-Jan-21 10:22 327 0 gusting 2 8.3
2020-Jan-21 10:13 142 7.8
2020-Jan-21 10:04 154 7.8
2020-Jan-21 09:55 288 0 gusting 2 7.8
2020-Jan-21 09:46 313 0 gusting 2 7.8
2020-Jan-21 09:37 267 7.2
2020-Jan-21 09:28 336 7.2
2020-Jan-21 09:19 309 6.7
2020-Jan-21 09:10 310 6.7
2020-Jan-21 09:01 296 6.7
2020-Jan-21 08:52 299 6.7
2020-Jan-21 08:43 063 6.7
2020-Jan-21 08:34 6.7
2020-Jan-21 08:25 151 6.7
2020-Jan-21 08:16 6.1
2020-Jan-21 08:07 5.6
2020-Jan-21 07:58 5.6
2020-Jan-21 07:49 5.0
2020-Jan-21 07:40 4.4
2020-Jan-21 07:31 4.4
2020-Jan-21 07:22 4.4
2020-Jan-21 07:13 3.9
2020-Jan-21 07:04 3.9
2020-Jan-21 06:55 3.9
2020-Jan-21 06:46 3.3
2020-Jan-21 06:37 3.3
2020-Jan-21 06:28 3.3
2020-Jan-21 06:19 3.3
2020-Jan-21 06:10 3.3
2020-Jan-21 06:01 3.3
2020-Jan-21 05:52 2.8
2020-Jan-21 05:43 2.8
2020-Jan-21 05:34 2.8
2020-Jan-21 05:25 2.8
2020-Jan-21 05:16 3.3
2020-Jan-21 05:07 3.3
2020-Jan-21 04:58 3.3
2020-Jan-21 04:49 3.3
2020-Jan-21 04:40 3.3
2020-Jan-21 04:31 3.9
2020-Jan-21 04:22 3.9
2020-Jan-21 04:13 3.9
2020-Jan-21 04:04 3.3
2020-Jan-21 03:55 3.3
2020-Jan-21 03:46 3.3
2020-Jan-21 03:37 3.9
2020-Jan-21 03:28 3.9
2020-Jan-21 03:19 3.9
2020-Jan-21 03:10 3.9
2020-Jan-21 03:01 4.4
2020-Jan-21 02:52 4.4
2020-Jan-21 02:43 3.9
2020-Jan-21 02:34 3.3
2020-Jan-21 02:25 3.3
2020-Jan-21 02:16 3.9
2020-Jan-21 02:07 3.9
2020-Jan-21 01:58 4.4
2020-Jan-21 01:49 4.4
2020-Jan-21 01:40 5.0
2020-Jan-21 01:31 5.0
2020-Jan-21 01:22 5.6
2020-Jan-21 01:13 5.6
2020-Jan-21 01:04 5.6
2020-Jan-21 00:55 5.6
2020-Jan-21 00:46 5.6
2020-Jan-21 00:37 5.6
2020-Jan-21 00:28 5.6
2020-Jan-21 00:19 5.0
2020-Jan-21 00:10 4.4
2020-Jan-21 00:01 4.4
2020-Jan-20 23:52 4.4
2020-Jan-20 23:43 3.9
2020-Jan-20 23:34 3.9
2020-Jan-20 23:25 3.9
2020-Jan-20 23:16 3.9
2020-Jan-20 23:07 3.9
2020-Jan-20 22:58 3.9
2020-Jan-20 22:49 3.9
2020-Jan-20 22:40 3.9
2020-Jan-20 22:31 4.4
2020-Jan-20 22:22 4.4
2020-Jan-20 22:13 4.4
2020-Jan-20 22:04 5.0
2020-Jan-20 21:55 5.0
2020-Jan-20 21:46 066 5.0
2020-Jan-20 21:37 061 5.6
2020-Jan-20 21:28 067 5.6
2020-Jan-20 21:19 073 6.1
2020-Jan-20 21:10 077 0 gusting 2 6.1
2020-Jan-20 21:01 078 0 gusting 3 6.1
2020-Jan-20 20:52 062 0 gusting 3 6.1
2020-Jan-20 20:43 067 0 gusting 3 6.1
2020-Jan-20 20:34 075 0 gusting 3 5.6
2020-Jan-20 20:25 079 0 gusting 1 5.6
2020-Jan-20 20:16 084 5.6
2020-Jan-20 20:07 075 5.0
2020-Jan-20 19:58 074 5.0
2020-Jan-20 19:49 074 5.0
2020-Jan-20 19:40 5.0
2020-Jan-20 19:31 082 5.0
2020-Jan-20 19:22 5.6
2020-Jan-20 19:13 5.6
2020-Jan-20 19:04 068 6.1
2020-Jan-20 18:55 081 5.6
2020-Jan-20 18:46 049 5.6
2020-Jan-20 18:37 075 5.6
2020-Jan-20 18:28 061 0 gusting 4 6.1
2020-Jan-20 18:19 055 5.0
2020-Jan-20 18:10 5.0
2020-Jan-20 18:01 318 4.4
2020-Jan-20 17:52 5.0
2020-Jan-20 17:43 5.0
2020-Jan-20 17:34 5.0
2020-Jan-20 17:25 4.4
2020-Jan-20 17:16 4.4
2020-Jan-20 17:07 4.4
2020-Jan-20 16:58 5.0
2020-Jan-20 16:49 5.0
2020-Jan-20 16:40 094 5.0
2020-Jan-20 16:31 5.6
2020-Jan-20 16:22 5.6
2020-Jan-20 16:13 038 6.1
2020-Jan-20 16:04 052 6.1
2020-Jan-20 15:55 049 6.7
2020-Jan-20 15:46 046 7.2
2020-Jan-20 15:37 035 0 gusting 2 7.8
2020-Jan-20 15:28 059 0 gusting 2 7.8
2020-Jan-20 15:19 270 7.8
2020-Jan-20 15:10 023 8.3
2020-Jan-20 15:01 083 8.9